Weather in Kostyukovka

Russia / Amur Oblast     51°18′57″N   127°40′36″E
temp.,
°C
wind,
m/s
gust,
m/s
humid.,
%
clouds,
%
prec.,
mm/h
press.,
hPa
HPBL,
m
19 april, mon
mon1900:00+6s346352 0.0 100454
03:00+5ssw34595 0.0 100351
06:00+5nw8137698 0.0 1005523
09:00+2nw11155748 0.0 1008770
12:00+5nw1114300 0.0 10091372
15:00+6nnw1215200 0.0 10101960
18:00+3nnw1216233 0.0 10122055
21:000nw1120300 0.0 10151602
20 april, tue
tue2000:00−2nw1019330 0.0 10151306
03:00−3nw1017340 0.0 10141081
06:00−4nw1118350 0.0 10151049
09:000nw1116240 0.0 10161237
12:00+5nw811140 0.0 10161537
15:00+8nw68115 0.0 10141560
18:00+10wnw37142 0.0 10131651
21:00+5s33295 0.0 101431
21 april, wed
wed2100:00+4sse36375 0.0 101470
03:00+2se47485 0.0 1013111
06:00+1se355688 0.0 101390
09:00+9sse6103984 0.0 1011323
12:00+18ssw68255 0.0 10101018
15:00+23ssw811180 0.0 10071844
18:00+22ssw811235 0.0 1007988
21:00+15s5123699 0.0 1009201
22 april, thu
thu2200:00+13sse51141100 0.0 1009209
03:00+12sse6164933 0.0 1008272
06:00+10sse716555 0.3 1008326
09:00+17ssw811446 0.6 1009773
12:00+22sw91227100 0.1 10091813
15:00+22sw101229100 0.4 10112356
18:00+20wsw793346 0.0 10141767
21:00+13nnw7940100 0.0 1020817
23 april, fri
fri2300:00+8nnw81054100 0.0 1024785
03:00+4nnw81142100 0.0 1027734
06:00+3n81140100 0.0 1030649
09:00+3nnw7936100 0.1 1031760
12:00+5n7827100 0.1 10311206
15:00+9n8918100 0.1 10301851
18:00+6n7918100 0.0 10311757
21:00+4n71225100 0.0 1032766